WZZ4631 LGIR-EPWA

Flight info

Callsign WZZ4631
Flight time 2h 36m
Altitude 36000
Route EPALO M749 DIRMI UM749 MIL DCT NEVRA/N0452F350 DCT KOROS/N0452F360 DCT ATFIR DCT SOF DCT SODGO DCT EKNAB DCT BUXLE DCT MEGIK DCT LENOV DCT ORTEB DCT KONZI DCT LOGDA
Aircraft A21N/M-SDE2E3FGHIRWXY/LB1

Departure

Time 2026-05-06 11:17
Airport Heraklion International Nikos Kazantzakis Airport (LGIR)

Arrival

Time 2026-05-06 13:54
Airport Warsaw Chopin Airport (EPWA)
Time Latitude Longitude Altitude Speed Heading
2026-05-06 10:47 35.33813 25.17514 119 ft 0 kts 317°
2026-05-06 11:12 35.33814 25.17513 119 ft 0 kts 317°
2026-05-06 11:12 35.33833 25.17491 117 ft 6 kts 317°
2026-05-06 11:12 35.33856 25.17476 115 ft 3 kts
2026-05-06 11:12 35.33891 25.17479 113 ft 4 kts
2026-05-06 11:13 35.33913 25.17514 111 ft 7 kts 89°
2026-05-06 11:13 35.33909 25.17602 109 ft 11 kts 95°
2026-05-06 11:13 35.33901 25.17712 107 ft 14 kts 95°
2026-05-06 11:13 35.33892 25.17840 104 ft 15 kts 95°
2026-05-06 11:14 35.33894 25.17955 102 ft 12 kts 91°
2026-05-06 11:14 35.33887 25.18064 101 ft 13 kts 95°
2026-05-06 11:14 35.33879 25.18172 103 ft 11 kts 95°
2026-05-06 11:14 35.33872 25.18277 105 ft 13 kts 95°
2026-05-06 11:15 35.33864 25.18392 106 ft 13 kts 95°
2026-05-06 11:15 35.33855 25.18508 107 ft 15 kts 95°
2026-05-06 11:15 35.33847 25.18647 106 ft 16 kts 94°
2026-05-06 11:15 35.33840 25.18793 104 ft 17 kts 94°
2026-05-06 11:16 35.33833 25.18943 99 ft 17 kts 83°
2026-05-06 11:16 35.33897 25.19000 92 ft 11 kts 310°
2026-05-06 11:16 35.33910 25.18934 95 ft 9 kts 273°
2026-05-06 11:16 35.33923 25.18719 102 ft 56 kts 274°
2026-05-06 11:17 35.33976 25.17940 96 ft 127 kts 275°
2026-05-06 11:17 35.34072 25.16626 141 ft 177 kts 275°
2026-05-06 11:17 35.34196 25.15107 734 ft 182 kts 276°
2026-05-06 11:17 35.34580 25.13661 1433 ft 184 kts 309°
2026-05-06 11:18 35.35606 25.12809 2000 ft 185 kts 341°
2026-05-06 11:18 35.36897 25.12366 2383 ft 198 kts 345°
2026-05-06 11:18 35.38252 25.11932 2881 ft 203 kts 345°
2026-05-06 11:18 35.39623 25.11492 3399 ft 206 kts 345°
2026-05-06 11:19 35.41040 25.11032 3788 ft 218 kts 345°
2026-05-06 11:19 35.42580 25.10531 4028 ft 239 kts 345°
2026-05-06 11:19 35.44230 25.09994 4370 ft 256 kts 345°
2026-05-06 11:19 35.45992 25.09418 4918 ft 265 kts 346°
2026-05-06 11:20 35.47761 25.08837 5681 ft 265 kts 346°
2026-05-06 11:20 35.49549 25.08251 6467 ft 265 kts 346°
2026-05-06 11:20 35.51324 25.07672 7205 ft 267 kts 346°
2026-05-06 11:20 35.52998 25.07126 7894 ft 268 kts 346°
2026-05-06 11:21 35.54803 25.06535 8587 ft 270 kts 345°
2026-05-06 11:21 35.56637 25.05934 9264 ft 273 kts 345°
2026-05-06 11:21 35.58449 25.05339 9921 ft 275 kts 345°
2026-05-06 11:21 35.60296 25.04733 10526 ft 279 kts 345°
2026-05-06 11:22 35.62229 25.04098 10845 ft 294 kts 345°
2026-05-06 11:22 35.64251 25.03432 11120 ft 309 kts 345°
2026-05-06 11:22 35.66399 25.02724 11392 ft 324 kts 345°
2026-05-06 11:22 35.68593 25.02002 11777 ft 334 kts 345°
2026-05-06 11:23 35.70843 25.01240 12353 ft 337 kts 343°
2026-05-06 11:23 35.73074 25.00313 12962 ft 339 kts 339°
2026-05-06 11:23 35.75297 24.99283 13515 ft 342 kts 339°
2026-05-06 11:23 35.77507 24.98243 14055 ft 345 kts 338°
2026-05-06 11:24 35.79739 24.97189 14616 ft 347 kts 338°
2026-05-06 11:24 35.81999 24.96124 15192 ft 349 kts 338°
2026-05-06 11:24 35.84272 24.95051 15735 ft 351 kts 338°
2026-05-06 11:24 35.86555 24.93974 16233 ft 353 kts 338°
2026-05-06 11:25 35.88842 24.92896 16745 ft 354 kts 338°
2026-05-06 11:25 35.91170 24.91799 17262 ft 356 kts 338°
2026-05-06 11:25 35.93467 24.90714 17729 ft 359 kts 338°
2026-05-06 11:25 35.95796 24.89613 18177 ft 361 kts 338°
2026-05-06 11:26 35.98147 24.88501 18646 ft 363 kts 338°
2026-05-06 11:26 36.00503 24.87386 19110 ft 364 kts 338°
2026-05-06 11:26 36.02917 24.86433 19510 ft 368 kts 346°
2026-05-06 11:26 36.05458 24.85923 19936 ft 370 kts 350°
2026-05-06 11:27 36.08024 24.85503 20362 ft 372 kts 350°
2026-05-06 11:27 36.10610 24.85074 20775 ft 374 kts 350°
2026-05-06 11:27 36.13190 24.84629 21178 ft 376 kts 350°
2026-05-06 11:27 36.15787 24.84165 21576 ft 377 kts 349°
2026-05-06 11:28 36.18367 24.83695 21965 ft 379 kts 349°
2026-05-06 11:28 36.20972 24.83214 22335 ft 381 kts 349°
2026-05-06 11:28 36.23611 24.82721 22705 ft 382 kts 349°
2026-05-06 11:28 36.26237 24.82229 23066 ft 384 kts 349°
2026-05-06 11:29 36.28881 24.81730 23416 ft 386 kts 349°
2026-05-06 11:29 36.31556 24.81224 23748 ft 388 kts 349°
2026-05-06 11:29 36.34234 24.80716 24072 ft 390 kts 349°
2026-05-06 11:29 36.36919 24.80207 24401 ft 392 kts 349°
2026-05-06 11:30 36.39623 24.79693 24732 ft 394 kts 349°
2026-05-06 11:30 36.42345 24.79175 25039 ft 396 kts 349°
2026-05-06 11:30 36.45050 24.78659 25335 ft 398 kts 349°
2026-05-06 11:30 36.47794 24.78136 25620 ft 400 kts 349°
2026-05-06 11:31 36.50569 24.77606 25915 ft 401 kts 349°
2026-05-06 11:31 36.53302 24.77084 26200 ft 403 kts 349°
2026-05-06 11:31 36.56077 24.76553 26474 ft 405 kts 349°
2026-05-06 11:31 36.58908 24.76011 26748 ft 406 kts 349°
2026-05-06 11:32 36.61720 24.75473 27015 ft 408 kts 349°
2026-05-06 11:32 36.64522 24.74937 27261 ft 410 kts 349°
2026-05-06 11:32 36.67352 24.74393 27493 ft 412 kts 349°
2026-05-06 11:32 36.70176 24.73851 27719 ft 414 kts 349°
2026-05-06 11:33 36.73009 24.73307 27972 ft 415 kts 349°
2026-05-06 11:33 36.75870 24.72757 28231 ft 416 kts 349°
2026-05-06 11:33 36.78760 24.72201 28471 ft 418 kts 349°
2026-05-06 11:33 36.81646 24.71645 28707 ft 419 kts 349°
2026-05-06 11:34 36.84533 24.71089 28942 ft 420 kts 349°
2026-05-06 11:34 36.87429 24.70532 29238 ft 420 kts 349°
2026-05-06 11:34 36.90282 24.69982 29564 ft 419 kts 349°
2026-05-06 11:34 36.93176 24.69424 29890 ft 418 kts 348°
2026-05-06 11:35 36.96028 24.68874 30217 ft 417 kts 348°
2026-05-06 11:35 36.98896 24.68321 30549 ft 416 kts 348°
2026-05-06 11:35 37.01765 24.67767 30867 ft 415 kts 348°
2026-05-06 11:35 37.04619 24.67214 31177 ft 414 kts 348°
2026-05-06 11:36 37.07431 24.66669 31464 ft 414 kts 348°
2026-05-06 11:36 37.10266 24.66119 31755 ft 413 kts 348°
2026-05-06 11:36 37.13128 24.65563 32055 ft 413 kts 348°
2026-05-06 11:36 37.15968 24.65010 32373 ft 412 kts 348°
2026-05-06 11:37 37.18795 24.64461 32684 ft 411 kts 348°
2026-05-06 11:37 37.21597 24.63915 32954 ft 411 kts 348°
2026-05-06 11:37 37.24423 24.63365 33226 ft 411 kts 348°
2026-05-06 11:37 37.27242 24.62816 33521 ft 410 kts 348°
2026-05-06 11:38 37.30059 24.62267 33795 ft 409 kts 348°
2026-05-06 11:38 37.32851 24.61721 34068 ft 409 kts 348°
2026-05-06 11:38 37.35658 24.61173 34318 ft 408 kts 348°
2026-05-06 11:38 37.38460 24.60625 34524 ft 409 kts 348°
2026-05-06 11:39 37.41284 24.60072 34716 ft 409 kts 348°
2026-05-06 11:39 37.44101 24.59521 34895 ft 410 kts 348°
2026-05-06 11:39 37.46904 24.58972 35075 ft 410 kts 348°
2026-05-06 11:39 37.49748 24.58415 35242 ft 411 kts 348°
2026-05-06 11:40 37.52561 24.57863 35407 ft 411 kts 348°
2026-05-06 11:40 37.55399 24.57305 35583 ft 412 kts 348°
2026-05-06 11:40 37.58215 24.56752 35740 ft 412 kts 348°
2026-05-06 11:40 37.61036 24.56197 35880 ft 413 kts 348°
2026-05-06 11:41 37.63893 24.55635 36013 ft 413 kts 348°
2026-05-06 11:41 37.69555 24.54519 36048 ft 414 kts 348°
2026-05-06 11:42 37.75234 24.53398 36046 ft 413 kts 348°
2026-05-06 11:42 37.80914 24.52276 36048 ft 414 kts 348°
2026-05-06 11:43 37.86588 24.51154 36052 ft 414 kts 348°
2026-05-06 11:43 37.92265 24.50030 36059 ft 414 kts 348°
2026-05-06 11:44 38.00801 24.48333 36069 ft 413 kts 348°
2026-05-06 11:44 38.06476 24.47204 36061 ft 413 kts 348°
2026-05-06 11:45 38.12138 24.46076 36060 ft 413 kts 348°
2026-05-06 11:45 38.17814 24.44943 36051 ft 412 kts 348°
2026-05-06 11:46 38.23482 24.43810 36047 ft 413 kts 348°
2026-05-06 11:46 38.29123 24.42680 36045 ft 413 kts 348°
2026-05-06 11:47 38.34775 24.41547 36044 ft 412 kts 348°
2026-05-06 11:47 38.40440 24.40408 36049 ft 412 kts 348°
2026-05-06 11:48 38.46109 24.39268 36046 ft 412 kts 348°
2026-05-06 11:48 38.51751 24.38132 36046 ft 412 kts 348°
2026-05-06 11:49 38.57441 24.36983 36050 ft 412 kts 348°
2026-05-06 11:49 38.63088 24.35840 36053 ft 412 kts 348°
2026-05-06 11:50 38.68742 24.34695 36058 ft 411 kts 347°
2026-05-06 11:50 38.74387 24.33551 36056 ft 411 kts 347°
2026-05-06 11:51 38.80028 24.32405 36056 ft 411 kts 348°
2026-05-06 11:51 38.85653 24.31261 36054 ft 411 kts 348°
2026-05-06 11:52 38.91298 24.30111 36052 ft 411 kts 347°
2026-05-06 11:52 38.96957 24.28956 36057 ft 411 kts 347°
2026-05-06 11:53 39.02626 24.27797 36057 ft 412 kts 347°
2026-05-06 11:53 39.08273 24.26640 36057 ft 411 kts 347°
2026-05-06 11:54 39.13937 24.25479 36053 ft 411 kts 347°
2026-05-06 11:54 39.19566 24.24322 36059 ft 411 kts 347°
2026-05-06 11:55 39.25187 24.23164 36058 ft 411 kts 347°
2026-05-06 11:55 39.30856 24.21995 36055 ft 411 kts 348°
2026-05-06 11:56 39.36497 24.20832 36058 ft 411 kts 348°
2026-05-06 11:56 39.42130 24.19667 36057 ft 410 kts 348°
2026-05-06 11:57 39.47757 24.18503 36058 ft 411 kts 347°
2026-05-06 11:57 39.53379 24.17336 36054 ft 411 kts 347°
2026-05-06 11:58 39.59032 24.16162 36058 ft 410 kts 347°
2026-05-06 11:58 39.64636 24.14994 36057 ft 411 kts 347°
2026-05-06 11:59 39.70306 24.13812 36056 ft 411 kts 347°
2026-05-06 11:59 39.75898 24.12644 36056 ft 410 kts 347°
2026-05-06 12:00 39.81540 24.11463 36057 ft 410 kts 347°
2026-05-06 12:00 39.87155 24.10287 36057 ft 411 kts 348°
2026-05-06 12:01 39.92808 24.09100 36056 ft 410 kts 348°
2026-05-06 12:01 39.98415 24.07922 36058 ft 410 kts 347°
2026-05-06 12:02 40.04053 24.06735 36054 ft 410 kts 347°
2026-05-06 12:02 40.09703 24.05544 36053 ft 411 kts 347°
2026-05-06 12:03 40.15352 24.04350 36054 ft 411 kts 347°
2026-05-06 12:03 40.20971 24.03161 36053 ft 411 kts 347°
2026-05-06 12:04 40.26637 24.01959 36048 ft 410 kts 347°
2026-05-06 12:04 40.32233 24.00771 36048 ft 410 kts 347°
2026-05-06 12:05 40.37896 23.99566 36048 ft 411 kts 347°
2026-05-06 12:05 40.43492 23.98374 36045 ft 410 kts 347°
2026-05-06 12:06 40.49126 23.97172 36039 ft 411 kts 347°
2026-05-06 12:06 40.54772 23.95964 36039 ft 411 kts 347°
2026-05-06 12:07 40.60404 23.94757 36029 ft 411 kts 348°
2026-05-06 12:07 40.66061 23.93542 36019 ft 411 kts 348°
2026-05-06 12:08 40.71691 23.92334 36017 ft 411 kts 348°
2026-05-06 12:08 40.77314 23.91124 36011 ft 410 kts 348°
2026-05-06 12:09 40.82963 23.89906 36010 ft 411 kts 348°
2026-05-06 12:09 40.88579 23.88693 36008 ft 411 kts 348°
2026-05-06 12:10 40.94196 23.87478 36009 ft 410 kts 348°
2026-05-06 12:10 40.99842 23.86254 36009 ft 410 kts 348°
2026-05-06 12:11 41.05455 23.85038 36016 ft 410 kts 347°
2026-05-06 12:11 41.11113 23.83806 36028 ft 410 kts 348°
2026-05-06 12:12 41.16730 23.82581 36037 ft 411 kts 348°
2026-05-06 12:12 41.22374 23.81351 36047 ft 411 kts 348°
2026-05-06 12:13 41.28006 23.80121 36058 ft 411 kts 348°
2026-05-06 12:13 41.33644 23.78889 36064 ft 411 kts 348°
2026-05-06 12:14 41.39262 23.77652 36067 ft 410 kts 347°
2026-05-06 12:14 41.44854 23.76104 36068 ft 410 kts 345°
2026-05-06 12:15 41.50380 23.74484 36071 ft 410 kts 345°
2026-05-06 12:15 41.55974 23.72843 36073 ft 411 kts 345°
2026-05-06 12:16 41.61543 23.71209 36083 ft 411 kts 345°
2026-05-06 12:16 41.67123 23.69571 36094 ft 411 kts 345°
2026-05-06 12:17 41.72688 23.67937 36103 ft 411 kts 345°
2026-05-06 12:17 41.78261 23.66296 36106 ft 411 kts 345°
2026-05-06 12:18 41.83819 23.64658 36107 ft 411 kts 345°
2026-05-06 12:18 41.89421 23.63003 36107 ft 411 kts 345°
2026-05-06 12:19 41.94994 23.61353 36106 ft 411 kts 345°
2026-05-06 12:19 42.00552 23.59706 36103 ft 411 kts 345°
2026-05-06 12:20 42.06137 23.58046 36099 ft 411 kts 345°
2026-05-06 12:20 42.11706 23.56388 36100 ft 411 kts 345°
2026-05-06 12:21 42.17310 23.54718 36094 ft 411 kts 345°
2026-05-06 12:21 42.22884 23.53054 36094 ft 412 kts 345°
2026-05-06 12:22 42.28460 23.51388 36088 ft 412 kts 345°
2026-05-06 12:22 42.34050 23.49711 36082 ft 412 kts 345°
2026-05-06 12:23 42.39625 23.48039 36085 ft 411 kts 345°
2026-05-06 12:23 42.45207 23.46360 36079 ft 412 kts 345°
2026-05-06 12:24 42.50816 23.44671 36080 ft 412 kts 345°
2026-05-06 12:24 42.56398 23.42985 36079 ft 412 kts 345°
2026-05-06 12:25 42.61988 23.41295 36071 ft 412 kts 345°
2026-05-06 12:25 42.67561 23.39608 36064 ft 413 kts 345°
2026-05-06 12:26 42.73189 23.38094 36057 ft 413 kts 348°
2026-05-06 12:26 42.78846 23.36730 36044 ft 413 kts 348°
2026-05-06 12:27 42.84502 23.35366 36048 ft 413 kts 348°
2026-05-06 12:27 42.90154 23.33998 36053 ft 413 kts 347°
2026-05-06 12:28 42.95798 23.32630 36052 ft 413 kts 347°
2026-05-06 12:28 43.01443 23.31258 36055 ft 414 kts 347°
2026-05-06 12:29 43.07089 23.29882 36048 ft 413 kts 347°
2026-05-06 12:29 43.12764 23.28497 36038 ft 413 kts 347°
2026-05-06 12:30 43.18392 23.27120 36027 ft 413 kts 347°
2026-05-06 12:30 43.24070 23.25729 36015 ft 413 kts 347°
2026-05-06 12:31 43.29697 23.24349 36006 ft 414 kts 347°
2026-05-06 12:31 43.35390 23.22950 36007 ft 415 kts 347°
2026-05-06 12:32 43.41036 23.21559 36004 ft 415 kts 347°
2026-05-06 12:32 43.46728 23.20154 35995 ft 414 kts 347°
2026-05-06 12:33 43.52377 23.18757 35989 ft 415 kts 347°
2026-05-06 12:33 43.58038 23.17355 35988 ft 415 kts 347°
2026-05-06 12:34 43.63732 23.15940 35989 ft 416 kts 347°
2026-05-06 12:34 43.69413 23.14528 35990 ft 416 kts 347°
2026-05-06 12:35 43.75081 23.13114 35985 ft 416 kts 347°
2026-05-06 12:35 43.80777 23.11693 35978 ft 415 kts 347°
2026-05-06 12:36 43.86436 23.10278 35973 ft 416 kts 347°
2026-05-06 12:36 43.92132 23.08850 35968 ft 416 kts 347°
2026-05-06 12:37 43.97837 23.07418 35965 ft 417 kts 347°
2026-05-06 12:37 44.03506 23.05991 35964 ft 417 kts 347°
2026-05-06 12:38 44.09210 23.04553 35963 ft 418 kts 347°
2026-05-06 12:38 44.14918 23.03111 35963 ft 417 kts 347°
2026-05-06 12:39 44.20624 23.01667 35965 ft 417 kts 347°
2026-05-06 12:39 44.26305 23.00227 35967 ft 417 kts 347°
2026-05-06 12:40 44.32020 22.98776 35970 ft 418 kts 346°
2026-05-06 12:40 44.37729 22.97321 35972 ft 418 kts 347°
2026-05-06 12:41 44.43472 22.95855 35975 ft 418 kts 347°
2026-05-06 12:41 44.49178 22.94397 35978 ft 418 kts 347°
2026-05-06 12:42 44.54884 22.92937 35980 ft 418 kts 346°
2026-05-06 12:42 44.60609 22.91471 35978 ft 418 kts 346°
2026-05-06 12:43 44.66309 22.90004 35978 ft 419 kts 346°
2026-05-06 12:43 44.72022 22.88533 35977 ft 419 kts 346°
2026-05-06 12:44 44.77730 22.87063 35976 ft 419 kts 346°
2026-05-06 12:44 44.83488 22.85572 35979 ft 420 kts 346°
2026-05-06 12:45 44.89141 22.83773 35983 ft 418 kts 342°
2026-05-06 12:46 44.97510 22.80453 35984 ft 417 kts 341°
2026-05-06 12:46 45.03093 22.78221 35983 ft 416 kts 341°
2026-05-06 12:47 45.08628 22.76009 35995 ft 417 kts 341°
2026-05-06 12:47 45.14238 22.73764 36010 ft 419 kts 341°
2026-05-06 12:48 45.19850 22.71513 36022 ft 419 kts 341°
2026-05-06 12:48 45.25438 22.69267 36033 ft 419 kts 341°
2026-05-06 12:49 45.31013 22.67024 36033 ft 419 kts 341°
2026-05-06 12:49 45.36618 22.64763 36022 ft 419 kts 341°
2026-05-06 12:50 45.42208 22.62504 36010 ft 419 kts 341°
2026-05-06 12:50 45.47823 22.60230 35998 ft 420 kts 341°
2026-05-06 12:51 45.53428 22.57954 35986 ft 421 kts 341°
2026-05-06 12:51 45.59048 22.55670 35989 ft 421 kts 341°
2026-05-06 12:52 45.64677 22.53379 35996 ft 422 kts 341°
2026-05-06 12:52 45.70280 22.51092 36001 ft 421 kts 340°
2026-05-06 12:53 45.75914 22.48783 36007 ft 421 kts 341°
2026-05-06 12:53 45.81531 22.46473 36000 ft 422 kts 341°
2026-05-06 12:54 45.87186 22.44146 35991 ft 423 kts 341°
2026-05-06 12:54 45.92822 22.41825 35978 ft 423 kts 341°
2026-05-06 12:55 45.98444 22.39503 35964 ft 424 kts 340°
2026-05-06 12:55 46.04100 22.37162 35959 ft 423 kts 341°
2026-05-06 12:56 46.09739 22.34825 35958 ft 424 kts 340°
2026-05-06 12:56 46.15437 22.32457 35959 ft 424 kts 340°
2026-05-06 12:57 46.21090 22.30105 35960 ft 424 kts 340°
2026-05-06 12:57 46.26742 22.27748 35960 ft 425 kts 340°
2026-05-06 12:58 46.32423 22.25372 35963 ft 426 kts 340°
2026-05-06 12:58 46.38128 22.22983 35970 ft 426 kts 340°
2026-05-06 12:59 46.43796 22.20603 35975 ft 426 kts 340°
2026-05-06 12:59 46.49447 22.18181 35979 ft 426 kts 339°
2026-05-06 13:00 46.55114 22.15653 35978 ft 426 kts 339°
2026-05-06 13:00 46.60776 22.13125 35975 ft 426 kts 339°
2026-05-06 13:01 46.66421 22.10608 35963 ft 427 kts 339°
2026-05-06 13:01 46.72096 22.08075 35956 ft 427 kts 339°
2026-05-06 13:02 46.77778 22.05532 35948 ft 428 kts 339°
2026-05-06 13:02 46.83421 22.03005 35942 ft 428 kts 339°
2026-05-06 13:03 46.89109 22.00449 35937 ft 427 kts 339°
2026-05-06 13:03 46.94768 21.97900 35941 ft 427 kts 339°
2026-05-06 13:04 47.00449 21.95338 35943 ft 428 kts 339°
2026-05-06 13:04 47.06140 21.92763 35940 ft 429 kts 339°
2026-05-06 13:05 47.11829 21.90188 35939 ft 430 kts 339°
2026-05-06 13:05 47.17523 21.87602 35936 ft 430 kts 339°
2026-05-06 13:06 47.23261 21.85145 35927 ft 432 kts 341°
2026-05-06 13:06 47.29044 21.82920 35928 ft 432 kts 341°
2026-05-06 13:07 47.34874 21.80684 35924 ft 432 kts 341°
2026-05-06 13:07 47.40691 21.78443 35928 ft 433 kts 341°
2026-05-06 13:08 47.46497 21.76202 35927 ft 434 kts 341°
2026-05-06 13:08 47.52316 21.73948 35928 ft 434 kts 341°
2026-05-06 13:09 47.58148 21.71684 35926 ft 434 kts 341°
2026-05-06 13:09 47.63979 21.69415 35924 ft 434 kts 341°
2026-05-06 13:10 47.69824 21.67136 35920 ft 435 kts 341°
2026-05-06 13:10 47.75659 21.64854 35915 ft 436 kts 341°
2026-05-06 13:11 47.81508 21.62561 35917 ft 436 kts 341°
2026-05-06 13:11 47.87365 21.60262 35911 ft 437 kts 341°
2026-05-06 13:12 47.93239 21.57951 35912 ft 438 kts 341°
2026-05-06 13:12 47.99104 21.55635 35910 ft 438 kts 341°
2026-05-06 13:13 48.04965 21.53318 35910 ft 437 kts 341°
2026-05-06 13:13 48.10853 21.50981 35902 ft 437 kts 341°
2026-05-06 13:14 48.16721 21.48651 35895 ft 439 kts 341°
2026-05-06 13:14 48.22630 21.46296 35899 ft 440 kts 341°
2026-05-06 13:15 48.28523 21.43941 35897 ft 441 kts 341°
2026-05-06 13:15 48.34441 21.41571 35900 ft 441 kts 341°
2026-05-06 13:16 48.40353 21.39200 35903 ft 441 kts 341°
2026-05-06 13:16 48.46249 21.36829 35896 ft 442 kts 341°
2026-05-06 13:17 48.52175 21.34442 35899 ft 442 kts 340°
2026-05-06 13:17 48.58136 21.32033 35893 ft 443 kts 340°
2026-05-06 13:18 48.64060 21.29632 35884 ft 444 kts 340°
2026-05-06 13:18 48.70023 21.27209 35883 ft 444 kts 340°
2026-05-06 13:19 48.75970 21.24789 35887 ft 445 kts 340°
2026-05-06 13:19 48.81922 21.22362 35887 ft 445 kts 340°
2026-05-06 13:20 48.87886 21.19922 35888 ft 445 kts 340°
2026-05-06 13:20 48.93848 21.17475 35889 ft 446 kts 340°
2026-05-06 13:21 48.99857 21.15006 35886 ft 447 kts 341°
2026-05-06 13:21 49.05812 21.12553 35882 ft 448 kts 341°
2026-05-06 13:22 49.11840 21.10064 35879 ft 448 kts 340°
2026-05-06 13:22 49.17852 21.07574 35882 ft 448 kts 341°
2026-05-06 13:23 49.23830 21.05096 35880 ft 448 kts 341°
2026-05-06 13:23 49.29839 21.02595 35888 ft 448 kts 341°
2026-05-06 13:24 49.35753 20.99816 35884 ft 446 kts 336°
2026-05-06 13:24 49.41548 20.96549 35878 ft 446 kts 335°
2026-05-06 13:25 49.47368 20.93226 35871 ft 447 kts 336°
2026-05-06 13:25 49.53489 20.91392 35867 ft 456 kts 351°
2026-05-06 13:26 49.59826 20.90657 35857 ft 456 kts 352°
2026-05-06 13:26 49.66093 20.89946 35848 ft 456 kts 352°
2026-05-06 13:27 49.72398 20.89194 35846 ft 456 kts 352°
2026-05-06 13:27 49.78739 20.88416 35839 ft 457 kts 352°
2026-05-06 13:28 49.85061 20.87637 35832 ft 457 kts 352°
2026-05-06 13:28 49.91356 20.86856 35817 ft 457 kts 352°
2026-05-06 13:29 49.97675 20.86071 35816 ft 458 kts 352°
2026-05-06 13:29 50.00841 20.85677 35634 ft 458 kts 352°
2026-05-06 13:29 50.04035 20.85278 35406 ft 457 kts 352°
2026-05-06 13:29 50.07200 20.84883 35178 ft 455 kts 352°
2026-05-06 13:30 50.10321 20.84492 34847 ft 453 kts 352°
2026-05-06 13:30 50.13454 20.84098 34324 ft 451 kts 352°
2026-05-06 13:30 50.16587 20.83705 33726 ft 450 kts 352°
2026-05-06 13:30 50.19688 20.83317 33081 ft 450 kts 352°
2026-05-06 13:31 50.22786 20.82928 32418 ft 450 kts 352°
2026-05-06 13:31 50.25926 20.82532 31716 ft 451 kts 352°
2026-05-06 13:31 50.29031 20.82140 31023 ft 452 kts 352°
2026-05-06 13:31 50.32190 20.81740 30311 ft 453 kts 352°
2026-05-06 13:32 50.35304 20.81345 29602 ft 454 kts 352°
2026-05-06 13:32 50.38426 20.80947 28860 ft 455 kts 352°
2026-05-06 13:32 50.41598 20.80545 28118 ft 456 kts 352°
2026-05-06 13:32 50.44719 20.80148 27630 ft 452 kts 352°
2026-05-06 13:33 50.47850 20.79752 27144 ft 449 kts 352°
2026-05-06 13:33 50.50958 20.79356 26652 ft 445 kts 352°
2026-05-06 13:33 50.54015 20.78967 26168 ft 441 kts 352°
2026-05-06 13:33 50.57059 20.78579 25663 ft 437 kts 352°
2026-05-06 13:34 50.60054 20.78198 25170 ft 433 kts 353°
2026-05-06 13:34 50.63052 20.77815 24663 ft 430 kts 352°
2026-05-06 13:34 50.65990 20.77437 24178 ft 426 kts 353°
2026-05-06 13:34 50.68925 20.77060 23689 ft 422 kts 353°
2026-05-06 13:35 50.71852 20.76684 23194 ft 419 kts 353°
2026-05-06 13:35 50.74744 20.76372 22699 ft 417 kts 357°
2026-05-06 13:35 50.77638 20.76805 22343 ft 418 kts
2026-05-06 13:35 50.80463 20.77615 21971 ft 411 kts
2026-05-06 13:36 50.83241 20.78461 21632 ft 404 kts
2026-05-06 13:36 50.85965 20.79264 21187 ft 401 kts
2026-05-06 13:36 50.88703 20.80036 20717 ft 398 kts
2026-05-06 13:36 50.91401 20.80772 20251 ft 396 kts
2026-05-06 13:37 50.94104 20.81495 19784 ft 394 kts
2026-05-06 13:37 50.96797 20.82204 19318 ft 392 kts
2026-05-06 13:37 50.99495 20.82910 18851 ft 390 kts
2026-05-06 13:37 51.02129 20.83598 18390 ft 388 kts
2026-05-06 13:38 51.04799 20.84294 17924 ft 385 kts
2026-05-06 13:38 51.07423 20.84980 17466 ft 383 kts
2026-05-06 13:38 51.10007 20.85654 17018 ft 380 kts
2026-05-06 13:38 51.12632 20.86339 16560 ft 377 kts
2026-05-06 13:39 51.15201 20.87011 16112 ft 375 kts
2026-05-06 13:39 51.17811 20.87694 15649 ft 372 kts
2026-05-06 13:39 51.20322 20.88352 15203 ft 370 kts
2026-05-06 13:39 51.22845 20.89013 14752 ft 367 kts
2026-05-06 13:40 51.25374 20.89677 14302 ft 364 kts
2026-05-06 13:40 51.27854 20.90330 13857 ft 362 kts
2026-05-06 13:40 51.30300 20.90973 13412 ft 359 kts
2026-05-06 13:40 51.32783 20.91626 12958 ft 357 kts
2026-05-06 13:41 51.35220 20.92271 12511 ft 354 kts
2026-05-06 13:41 51.37632 20.92909 12071 ft 352 kts
2026-05-06 13:41 51.40051 20.93549 11626 ft 350 kts
2026-05-06 13:41 51.42435 20.94180 11185 ft 348 kts
2026-05-06 13:42 51.44813 20.94810 10744 ft 346 kts
2026-05-06 13:42 51.47158 20.95432 10303 ft 344 kts
2026-05-06 13:42 51.49501 20.96054 9861 ft 340 kts
2026-05-06 13:42 51.51820 20.96672 9421 ft 332 kts
2026-05-06 13:43 51.54048 20.97265 8982 ft 324 kts
2026-05-06 13:43 51.56253 20.97851 8540 ft 316 kts
2026-05-06 13:43 51.58395 20.98421 8185 ft 306 kts
2026-05-06 13:43 51.60443 20.98970 7992 ft 296 kts
2026-05-06 13:44 51.62490 20.99517 7794 ft 295 kts
2026-05-06 13:44 51.64502 21.00054 7601 ft 295 kts
2026-05-06 13:44 51.66509 21.00591 7405 ft 288 kts
2026-05-06 13:44 51.68439 21.01109 7208 ft 280 kts
2026-05-06 13:45 51.70327 21.01616 7004 ft 272 kts
2026-05-06 13:45 51.73972 21.02596 6610 ft 258 kts
2026-05-06 13:45 51.75722 21.03064 6416 ft 256 kts
2026-05-06 13:46 51.77491 21.03537 6221 ft 256 kts
2026-05-06 13:46 51.79236 21.04004 6033 ft 256 kts
2026-05-06 13:46 51.80987 21.04476 5837 ft 255 kts
2026-05-06 13:46 51.82690 21.04936 5648 ft 254 kts
2026-05-06 13:47 51.84486 21.05421 5443 ft 254 kts
2026-05-06 13:47 51.86240 21.05896 5245 ft 252 kts
2026-05-06 13:47 51.87965 21.06362 5050 ft 251 kts
2026-05-06 13:47 51.89688 21.06829 4860 ft 251 kts
2026-05-06 13:48 51.91403 21.07294 4660 ft 247 kts
2026-05-06 13:48 51.93058 21.07744 4460 ft 240 kts
2026-05-06 13:48 51.94695 21.08191 4286 ft 232 kts
2026-05-06 13:48 51.96225 21.08610 4208 ft 217 kts
2026-05-06 13:49 51.97680 21.09007 4017 ft 207 kts
2026-05-06 13:49 51.99087 21.09388 3750 ft 203 kts
2026-05-06 13:49 52.00470 21.09755 3493 ft 201 kts
2026-05-06 13:49 52.01799 21.09496 3242 ft 190 kts 336°
2026-05-06 13:50 52.02979 21.08649 3011 ft 180 kts 327°
2026-05-06 13:50 52.04039 21.07727 2795 ft 167 kts 325°
2026-05-06 13:50 52.05063 21.06806 2618 ft 167 kts 325°
2026-05-06 13:50 52.06072 21.05905 2400 ft 162 kts 325°
2026-05-06 13:51 52.07046 21.05049 2185 ft 158 kts 326°
2026-05-06 13:51 52.07981 21.04235 1976 ft 148 kts 325°
2026-05-06 13:51 52.08878 21.03452 1781 ft 147 kts 325°
2026-05-06 13:51 52.09772 21.02668 1607 ft 145 kts 325°
2026-05-06 13:52 52.10665 21.01887 1421 ft 146 kts 326°
2026-05-06 13:52 52.11546 21.01116 1232 ft 144 kts 326°
2026-05-06 13:52 52.12441 21.00334 1038 ft 145 kts 326°
2026-05-06 13:52 52.13327 20.99559 860 ft 145 kts 327°
2026-05-06 13:53 52.14232 20.98767 664 ft 144 kts 327°
2026-05-06 13:53 52.15109 20.98000 480 ft 143 kts 327°
2026-05-06 13:53 52.15979 20.97238 376 ft 131 kts 328°
2026-05-06 13:53 52.16656 20.96630 365 ft 84 kts 333°
2026-05-06 13:54 52.17046 20.96298 365 ft 39 kts 341°
2026-05-06 13:54 52.17206 20.96255 365 ft 19 kts 358°
2026-05-06 13:54 52.17313 20.96248 365 ft 15 kts 357°
2026-05-06 13:54 52.17398 20.96291 365 ft 13 kts 54°
2026-05-06 13:55 52.17440 20.96426 365 ft 13 kts 64°
2026-05-06 13:55 52.17451 20.96568 365 ft 13 kts 128°
2026-05-06 13:55 52.17374 20.96651 365 ft 13 kts 149°
2026-05-06 13:55 52.17322 20.96688 365 ft 4 kts 188°
2026-05-06 13:56 52.17298 20.96645 365 ft 5 kts 239°
2026-05-06 13:56 52.17286 20.96612 365 ft 0 kts 242°